Location: Unspecified
(0.0000°N, 0.0000°E)
Time: 02:23:29
(UTC+00:00)

Explorer 11/Cluster Stage 4 - Pass Details

Date: 18 December 2018
Orbit: 467 x 1260 km, 28.8° (Epoch: 15 January)

Event Time Altitude Azimuth Distance (km) Brightness Sun altitude
Rises 21:19:42 0° 257° (WSW) 4,123 10.9 -45.3°
Reaches altitude 10° 21:23:02 10° 266° (W) 3,082 10.0 -46.0°
Enters shadow 21:25:16 18° 276° (W) 2,440 9.3 -46.4°
